| time (UTC) | temp F | wind direction | speed MPH | gust MPH | rain 1hr in | rain 24hr in | rain mn in | humidity % | barometer mb |
| 20260507163013 | 54 | 273 | 5.0 | 10.0 | 0.00 | 0.02 | 0.00 | 47 | 1016.1 |
| 20260507161513 | 53 | 279 | 7.0 | 12.0 | 0.00 | 0.02 | 0.00 | 46 | 1016.5 |
| 20260507160009 | 53 | 306 | 3.0 | 12.0 | 0.00 | 0.04 | 0.00 | 48 | 1016.5 |
| 20260507154508 | 52 | 249 | 4.0 | 8.0 | 0.00 | 0.04 | 0.00 | 46 | 1016.7 |
| 20260507153010 | 52 | 324 | 4.0 | 13.0 | 0.00 | 0.04 | 0.00 | 47 | 1016.9 |
| 20260507151507 | 52 | 275 | 4.0 | 12.0 | 0.00 | 0.04 | 0.00 | 47 | 1017.0 |
| 20260507150006 | 52 | 323 | 3.0 | 11.0 | 0.00 | 0.07 | 0.00 | 49 | 1017.3 |
| 20260507144503 | 51 | 331 | 4.0 | 13.0 | 0.00 | 0.07 | 0.00 | 48 | 1017.3 |
| 20260507143002 | 51 | 21 | 4.0 | 10.0 | 0.00 | 0.07 | 0.00 | 49 | 1017.4 |
| 20260507141602 | 50 | 280 | 3.0 | 10.0 | 0.00 | 0.07 | 0.00 | 51 | 1017.4 |
| 20260507140058 | 49 | 11 | 2.0 | 12.0 | 0.00 | 0.07 | 0.00 | 55 | 1017.5 |
| 20260507134557 | 48 | 303 | 5.0 | 11.0 | 0.00 | 0.14 | 0.00 | 55 | 1017.6 |
| 20260507133056 | 48 | 292 | 3.0 | 10.0 | 0.00 | 0.14 | 0.00 | 63 | 1017.6 |
| 20260507131555 | 47 | 335 | 2.0 | 5.0 | 0.00 | 0.14 | 0.00 | 68 | 1017.6 |
| 20260507130047 | 46 | 19 | 1.0 | 6.0 | 0.00 | 0.14 | 0.00 | 69 | 1017.8 |
| 20260507124545 | 45 | 55 | 1.0 | 4.0 | 0.00 | 0.25 | 0.00 | 75 | 1017.6 |
| 20260507123044 | 44 | 355 | 1.0 | 4.0 | 0.00 | 0.25 | 0.00 | 75 | 1017.9 |
| 20260507121543 | 43 | 329 | 2.0 | 5.0 | 0.00 | 0.25 | 0.00 | 80 | 1017.8 |
| 20260507120043 | 42 | 346 | 0.0 | 4.0 | 0.00 | 0.25 | 0.00 | 83 | 1017.7 |
| 20260507114542 | 41 | 236 | 1.0 | 4.0 | 0.00 | 0.26 | 0.00 | 84 | 1017.7 |
| 20260507113041 | 40 | 222 | 2.0 | 4.0 | 0.00 | 0.26 | 0.00 | 86 | 1017.7 |
| 20260507111541 | 40 | 217 | 1.0 | 3.0 | 0.00 | 0.26 | 0.00 | 87 | 1017.4 |
| 20260507110052 | 38 | 227 | 1.0 | 3.0 | 0.00 | 0.26 | 0.00 | 86 | 1017.4 |
| 20260507104538 | 38 | 227 | 1.0 | 3.0 | 0.00 | 0.27 | 0.00 | 85 | 1017.4 |
| 20260507103036 | 38 | 227 | 1.0 | 3.0 | 0.00 | 0.27 | 0.00 | 84 | 1017.2 |
| 20260507101541 | 39 | 227 | 0.0 | 3.0 | 0.00 | 0.27 | 0.00 | 82 | 1017.0 |
| 20260507100037 | 39 | 227 | 0.0 | 3.0 | 0.00 | 0.27 | 0.00 | 81 | 1016.9 |
| 20260507094531 | 40 | 227 | 1.0 | 3.0 | 0.00 | 0.28 | 0.00 | 80 | 1016.8 |
| 20260507093028 | 40 | 227 | 1.0 | 4.0 | 0.00 | 0.28 | 0.00 | 79 | 1016.8 |
| 20260507091524 | 42 | 279 | 1.0 | 4.0 | 0.00 | 0.28 | 0.00 | 78 | 1016.9 |
| 20260507090034 | 42 | 292 | 1.0 | 4.0 | 0.00 | 0.28 | 0.00 | 76 | 1016.9 |
| 20260507084531 | 43 | 292 | 3.0 | 5.0 | 0.00 | 0.28 | 0.00 | 76 | 1017.0 |
| 20260507083021 | 43 | 329 | 2.0 | 5.0 | 0.00 | 0.28 | 0.00 | 76 | 1017.0 |
| 20260507081519 | 43 | 21 | 1.0 | 4.0 | 0.00 | 0.28 | 0.00 | 77 | 1016.9 |
| 20260507080016 | 44 | 344 | 1.0 | 4.0 | 0.00 | 0.28 | 0.00 | 77 | 1016.9 |
| 20260507074526 | 44 | 71 | 1.0 | 3.0 | 0.00 | 0.28 | 0.00 | 78 | 1016.9 |
| 20260507073014 | 44 | 355 | 2.0 | 4.0 | 0.00 | 0.28 | 0.00 | 79 | 1016.7 |
| 20260507071513 | 44 | 298 | 3.0 | 4.0 | 0.00 | 0.28 | 0.00 | 79 | 1017.0 |
| 20260507070013 | 44 | 283 | 2.0 | 6.0 | 0.00 | 0.28 | 0.00 | 80 | 1017.0 |
| 20260507064510 | 44 | 322 | 3.0 | 9.0 | 0.00 | 0.28 | 0.00 | 82 | 1016.7 |
| 20260507063010 | 45 | 325 | 3.0 | 8.0 | 0.00 | 0.28 | 0.00 | 84 | 1016.7 |
| 20260507061506 | 45 | 329 | 5.0 | 9.0 | 0.00 | 0.28 | 0.00 | 86 | 1016.5 |
| 20260507060004 | 45 | 333 | 5.0 | 11.0 | 0.00 | 0.28 | 0.00 | 87 | 1016.3 |
| 20260507054502 | 46 | 332 | 3.0 | 8.0 | 0.00 | 0.28 | 0.00 | 88 | 1016.3 |
| 20260507053005 | 46 | 355 | 2.0 | 9.0 | 0.00 | 0.28 | 0.00 | 89 | 1016.0 |
| 20260507051602 | 46 | 296 | 3.0 | 5.0 | 0.00 | 0.28 | 0.00 | 89 | 1016.2 |
| 20260507050101 | 46 | 234 | 0.0 | 1.0 | 0.00 | 0.28 | 0.00 | 89 | 1016.3 |
| 20260507044601 | 46 | 234 | 1.0 | 3.0 | 0.00 | 0.28 | 0.00 | 89 | 1016.3 |
| 20260507043059 | 46 | 234 | 0.0 | 3.0 | 0.00 | 0.28 | 0.00 | 88 | 1016.1 |
| 20260507041553 | 46 | 246 | 1.0 | 3.0 | 0.00 | 0.28 | 0.00 | 88 | 1015.8 |
| 20260507040052 | 46 | 246 | 1.0 | 4.0 | 0.00 | 0.28 | 0.00 | 88 | 1015.8 |
| 20260507034558 | 46 | 246 | 0.0 | 3.0 | 0.00 | 0.28 | 0.28 | 88 | 1015.8 |
| 20260507033051 | 46 | 246 | 0.0 | 2.0 | 0.00 | 0.28 | 0.28 | 87 | 1015.7 |
| 20260507031550 | 46 | 246 | 0.0 | 2.0 | 0.00 | 0.28 | 0.28 | 87 | 1016.1 |
| 20260507030050 | 46 | 246 | 0.0 | 2.0 | 0.00 | 0.28 | 0.28 | 87 | 1015.8 |
| 20260507024556 | 46 | 246 | 2.0 | 4.0 | 0.00 | 0.28 | 0.28 | 86 | 1016.3 |
| 20260507023047 | 46 | 317 | 0.0 | 3.0 | 0.00 | 0.28 | 0.28 | 86 | 1016.0 |
| 20260507021549 | 47 | 317 | 2.0 | 3.0 | 0.00 | 0.28 | 0.28 | 86 | 1016.5 |
| 20260507020052 | 47 | 317 | 0.0 | 2.0 | 0.00 | 0.28 | 0.28 | 85 | 1016.4 |
| 20260507014545 | 47 | 317 | 0.0 | 2.0 | 0.00 | 0.28 | 0.28 | 85 | 1016.5 |
| 20260507013044 | 47 | 317 | 0.0 | 2.0 | 0.00 | 0.28 | 0.28 | 85 | 1016.3 |
| 20260507011546 | 47 | 317 | 1.0 | 3.0 | 0.00 | 0.28 | 0.28 | 84 | 1016.4 |
| 20260507010054 | 47 | 317 | 1.0 | 5.0 | 0.00 | 0.28 | 0.28 | 84 | 1016.2 |
| 20260507004541 | 47 | 268 | 2.0 | 3.0 | 0.00 | 0.28 | 0.28 | 85 | 1015.9 |
| 20260507003040 | 47 | 268 | 2.0 | 4.0 | 0.00 | 0.28 | 0.28 | 85 | 1015.8 |
| 20260507001546 | 47 | 297 | 2.0 | 7.0 | 0.00 | 0.28 | 0.28 | 85 | 1015.5 |
| 20260507000037 | 47 | 290 | 4.0 | 7.0 | 0.00 | 0.28 | 0.28 | 85 | 1015.3 |
| 20260506234535 | 47 | 249 | 2.0 | 7.0 | 0.00 | 0.28 | 0.28 | 85 | 1015.2 |
| 20260506233038 | 47 | 244 | 4.0 | 7.0 | 0.00 | 0.28 | 0.28 | 85 | 1015.1 |
| 20260506231536 | 48 | 250 | 3.0 | 5.0 | 0.00 | 0.28 | 0.28 | 85 | 1015.1 |
| 20260506230031 | 48 | 244 | 3.0 | 5.0 | 0.00 | 0.28 | 0.28 | 85 | 1014.9 |
| 20260506224530 | 48 | 294 | 4.0 | 7.0 | 0.00 | 0.28 | 0.28 | 85 | 1014.9 |
| 20260506223027 | 48 | 318 | 2.0 | 10.0 | 0.00 | 0.28 | 0.28 | 86 | 1014.6 |
| 20260506221527 | 48 | 314 | 3.0 | 10.0 | 0.00 | 0.28 | 0.28 | 86 | 1014.5 |
| 20260506220026 | 48 | 321 | 6.0 | 11.0 | 0.00 | 0.28 | 0.28 | 86 | 1014.3 |
| 20260506214525 | 48 | 311 | 5.0 | 13.0 | 0.00 | 0.28 | 0.28 | 87 | 1014.4 |
| 20260506213022 | 49 | 305 | 9.0 | 12.0 | 0.00 | 0.28 | 0.28 | 87 | 1014.2 |
| 20260506211520 | 49 | 327 | 5.0 | 12.0 | 0.00 | 0.28 | 0.28 | 88 | 1013.9 |
| 20260506210018 | 49 | 313 | 4.0 | 10.0 | 0.00 | 0.28 | 0.28 | 88 | 1013.5 |
| 20260506204516 | 48 | 313 | 5.0 | 14.0 | 0.01 | 0.28 | 0.28 | 89 | 1013.2 |
| 20260506203015 | 49 | 292 | 7.0 | 12.0 | 0.01 | 0.28 | 0.28 | 89 | 1013.0 |
| 20260506201518 | 49 | 310 | 3.0 | 9.0 | 0.02 | 0.28 | 0.28 | 89 | 1012.4 |
| 20260506200015 | 49 | 319 | 3.0 | 9.0 | 0.02 | 0.30 | 0.28 | 89 | 1012.4 |
| 20260506194511 | 49 | 301 | 8.0 | 12.0 | 0.01 | 0.28 | 0.28 | 89 | 1012.3 |
| 20260506193008 | 50 | 290 | 4.0 | 8.0 | 0.01 | 0.28 | 0.28 | 89 | 1012.3 |
| 20260506191507 | 50 | 250 | 4.0 | 8.0 | 0.00 | 0.28 | 0.27 | 89 | 1012.0 |
| 20260506190006 | 50 | 310 | 2.0 | 6.0 | 0.00 | 0.28 | 0.27 | 88 | 1011.9 |
| 20260506184515 | 50 | 303 | 4.0 | 9.0 | 0.00 | 0.28 | 0.27 | 88 | 1011.7 |
| 20260506183002 | 50 | 293 | 6.0 | 10.0 | 0.00 | 0.28 | 0.27 | 88 | 1011.7 |
| 20260506181558 | 51 | 310 | 3.0 | 10.0 | 0.00 | 0.28 | 0.27 | 88 | 1011.3 |
| 20260506180057 | 52 | 313 | 7.0 | 10.0 | 0.00 | 0.28 | 0.27 | 87 | 1011.2 |
| 20260506174600 | 53 | 323 | 5.0 | 11.0 | 0.00 | 0.28 | 0.27 | 87 | 1010.7 |
| 20260506173117 | 54 | 308 | 6.0 | 12.0 | 0.00 | 0.28 | 0.27 | 87 | 1010.5 |
| 20260506171551 | 58 | 250 | 6.0 | 11.0 | 0.00 | 0.28 | 0.27 | 87 | 1010.3 |
| 20260506170049 | 59 | 267 | 4.0 | 10.0 | 0.00 | 0.28 | 0.27 | 86 | 1009.9 |
| 20260506164548 | 60 | 251 | 4.0 | 8.0 | 0.01 | 0.28 | 0.27 | 86 | 1010.2 |